Time,TemperatureF,DewpointF,PressureIn,WindDirection,WindDirectionDegrees,WindSpeedMPH,WindSpeedGustMPH,Humidity,HourlyPrecipIn,Conditions,Clouds,dailyrainin,SolarRadiationWatts/m^2,SoftwareType,DateUTC
2013-05-15 00:01:00,74.1,65.3,29.82,SE,141,4.0,8.0,74,0.00,,---,0.00,0.00,VWS V14.00,2013-05-15 05:01:00,
2013-05-15 00:06:00,74.1,65.3,29.82,SE,141,2.0,4.0,74,0.00,,---,0.00,0.00,VWS V14.00,2013-05-15 05:06:00,
2013-05-15 00:11:00,74.0,65.2,29.82,SE,141,5.0,6.0,74,0.00,,---,0.00,0.00,VWS V14.00,2013-05-15 05:11:00,
2013-05-15 00:16:00,74.0,65.2,29.82,SE,141,4.0,8.0,74,0.00,,---,0.00,0.00,VWS V14.00,2013-05-15 05:16:00,
2013-05-15 00:21:00,73.9,65.5,29.82,South,182,1.0,13.0,75,0.00,,---,0.00,0.00,VWS V14.00,2013-05-15 05:21:00,
2013-05-15 00:26:00,73.8,65.4,29.83,South,182,3.0,11.0,75,0.00,,---,0.00,0.00,VWS V14.00,2013-05-15 05:26:00,
2013-05-15 00:31:00,73.6,65.2,29.82,South,180,6.0,12.0,75,0.00,,---,0.00,0.00,VWS V14.00,2013-05-15 05:31:00,
2013-05-15 00:36:00,73.5,65.5,29.82,SSW,192,10.0,16.0,76,0.00,,---,0.00,0.00,VWS V14.00,2013-05-15 05:36:00,
2013-05-15 00:41:00,73.4,65.4,29.82,South,189,6.0,16.0,76,0.00,,---,0.00,0.00,VWS V14.00,2013-05-15 05:41:00,
2013-05-15 00:46:00,73.3,65.3,29.83,South,191,5.0,12.0,76,0.00,,---,0.00,0.00,VWS V14.00,2013-05-15 05:46:00,
2013-05-15 00:51:00,73.2,65.2,29.82,SSW,192,1.0,12.0,76,0.00,,---,0.00,0.00,VWS V14.00,2013-05-15 05:51:00,
2013-05-15 00:56:00,73.1,65.5,29.82,South,175,2.0,16.0,77,0.00,,---,0.00,0.00,VWS V14.00,2013-05-15 05:56:00,
2013-05-15 01:01:00,72.9,65.3,29.81,SSW,212,5.0,16.0,77,0.00,,---,0.00,0.00,VWS V14.00,2013-05-15 06:01:00,
2013-05-15 01:06:00,72.7,65.4,29.81,SSW,194,11.0,11.0,78,0.00,,---,0.00,0.00,VWS V14.00,2013-05-15 06:06:00,
2013-05-15 01:11:00,72.5,65.6,29.81,SSW,206,4.0,11.0,79,0.00,,---,0.00,0.00,VWS V14.00,2013-05-15 06:11:00,
2013-05-15 01:16:00,72.2,65.7,29.81,SSW,202,7.0,11.0,80,0.00,,---,0.00,0.00,VWS V14.00,2013-05-15 06:16:00,
2013-05-15 01:21:00,72.0,65.5,29.82,SSW,194,5.0,11.0,80,0.00,,---,0.00,0.00,VWS V14.00,2013-05-15 06:21:00,
2013-05-15 01:26:00,71.7,65.6,29.82,SSW,194,2.0,9.0,81,0.00,,---,0.00,0.00,VWS V14.00,2013-05-15 06:26:00,
2013-05-15 01:31:00,71.6,65.8,29.82,SSW,193,2.0,9.0,82,0.00,,---,0.00,0.00,VWS V14.00,2013-05-15 06:31:00,
2013-05-15 01:36:00,71.3,65.9,29.82,South,173,11.0,13.0,83,0.00,,---,0.00,0.00,VWS V14.00,2013-05-15 06:36:00,
2013-05-15 01:41:00,70.9,65.8,29.83,WSW,251,14.0,17.0,84,0.01,,---,0.01,0.00,VWS V14.00,2013-05-15 06:41:00,
2013-05-15 01:46:00,70.3,64.9,29.82,South,175,2.0,18.0,83,0.03,,---,0.03,0.00,VWS V14.00,2013-05-15 06:46:00,
2013-05-15 01:51:00,69.4,63.3,29.82,SW,229,4.0,18.0,81,0.04,,---,0.04,0.00,VWS V14.00,2013-05-15 06:51:00,
2013-05-15 01:56:00,68.3,62.2,29.82,SW,222,2.0,13.0,81,0.06,,---,0.06,0.00,VWS V14.00,2013-05-15 06:56:00,
2013-05-15 02:01:00,67.4,61.7,29.80,WSW,254,1.0,13.0,82,0.07,,---,0.07,0.00,VWS V14.00,2013-05-15 07:01:00,
2013-05-15 02:06:00,66.7,61.7,29.80,WSW,255,2.0,8.0,84,0.07,,---,0.07,0.00,VWS V14.00,2013-05-15 07:06:00,
2013-05-15 02:11:00,66.2,61.2,29.78,SE,126,4.0,9.0,84,0.08,,---,0.08,0.00,VWS V14.00,2013-05-15 07:11:00,
2013-05-15 02:16:00,65.7,61.1,29.78,SW,234,0.0,14.0,85,0.09,,---,0.09,0.00,VWS V14.00,2013-05-15 07:16:00,
2013-05-15 02:21:00,65.3,61.0,29.77,SSE,168,5.0,14.0,86,0.10,,---,0.10,0.00,VWS V14.00,2013-05-15 07:21:00,
2013-05-15 02:26:00,65.1,60.5,29.77,SSE,156,2.0,15.0,85,0.10,,---,0.10,0.00,VWS V14.00,2013-05-15 07:26:00,
2013-05-15 02:31:00,65.0,60.4,29.76,South,175,2.0,15.0,85,0.11,,---,0.11,0.00,VWS V14.00,2013-05-15 07:31:00,
2013-05-15 02:36:00,65.1,60.2,29.76,South,175,1.0,7.0,84,0.12,,---,0.12,0.00,VWS V14.00,2013-05-15 07:36:00,
2013-05-15 02:41:00,65.1,59.8,29.74,South,174,5.0,8.0,83,0.13,,---,0.13,0.00,VWS V14.00,2013-05-15 07:41:00,
2013-05-15 02:46:00,65.3,58.6,29.75,ESE,119,2.0,11.0,79,0.13,,---,0.14,0.00,VWS V14.00,2013-05-15 07:46:00,
2013-05-15 02:51:00,65.9,59.2,29.71,East,84,11.0,11.0,79,0.14,,---,0.15,0.00,VWS V14.00,2013-05-15 07:51:00,
2013-05-15 02:56:00,65.8,58.8,29.67,ENE,74,20.0,20.0,78,0.12,,---,0.16,0.00,VWS V14.00,2013-05-15 07:56:00,
2013-05-15 03:01:00,67.8,56.5,29.68,NNE,24,5.0,23.0,67,0.14,,---,0.18,0.00,VWS V14.00,2013-05-15 08:01:00,
2013-05-15 03:06:00,68.5,58.7,29.72,SSW,209,12.0,12.0,71,0.11,,---,0.18,0.00,VWS V14.00,2013-05-15 08:06:00,
2013-05-15 03:11:00,68.1,58.7,29.73,West,281,4.0,15.0,72,0.11,,---,0.18,0.00,VWS V14.00,2013-05-15 08:11:00,
2013-05-15 03:16:00,67.7,59.1,29.74,West,281,2.0,7.0,74,0.10,,---,0.18,0.00,VWS V14.00,2013-05-15 08:16:00,
2013-05-15 03:21:00,67.0,59.2,29.75,WSW,255,4.0,8.0,76,0.10,,---,0.18,0.00,VWS V14.00,2013-05-15 08:21:00,
2013-05-15 03:26:00,66.5,59.4,29.75,WSW,251,2.0,5.0,78,0.08,,---,0.18,0.00,VWS V14.00,2013-05-15 08:26:00,
2013-05-15 03:30:00,66.0,59.7,29.76,SE,129,4.0,12.0,80,0.08,,SKC,0.18,0.00,VWS V14.01,2013-05-15 08:30:00,
2013-05-15 03:31:00,66.1,59.4,29.76,SSE,156,11.0,12.0,79,0.08,,---,0.18,0.00,VWS V14.00,2013-05-15 08:31:00,
2013-05-15 03:36:00,65.7,60.1,29.77,SSE,162,7.0,12.0,82,0.07,,---,0.18,0.00,VWS V14.00,2013-05-15 08:36:00,
2013-05-15 03:40:00,65.0,60.0,29.77,SE,137,6.0,13.0,84,0.07,,SKC,0.18,0.00,VWS V14.01,2013-05-15 08:40:00,
2013-05-15 03:41:00,65.1,60.2,29.77,SE,141,8.0,13.0,84,0.07,,---,0.18,0.00,VWS V14.00,2013-05-15 08:41:00,
2013-05-15 03:46:00,64.7,60.4,29.77,SSE,162,2.0,12.0,86,0.05,,---,0.18,0.00,VWS V14.00,2013-05-15 08:46:00,
2013-05-15 03:50:00,64.3,60.3,29.77,SSE,154,6.0,13.0,87,0.05,,SKC,0.18,0.00,VWS V14.01,2013-05-15 08:50:00,
2013-05-15 03:51:00,64.3,60.3,29.77,SSE,157,5.0,13.0,87,0.05,,---,0.18,0.00,VWS V14.00,2013-05-15 08:51:00,
2013-05-15 03:56:00,64.1,60.5,29.76,SE,144,17.0,17.0,88,0.03,,---,0.18,0.00,VWS V14.00,2013-05-15 08:56:00,
2013-05-15 04:00:00,64.0,60.7,29.76,SE,137,7.0,17.0,89,0.03,,SKC,0.18,0.00,VWS V14.01,2013-05-15 09:00:00,
2013-05-15 04:01:00,64.0,60.7,29.76,SE,142,8.0,17.0,89,0.03,,---,0.18,0.00,VWS V14.00,2013-05-15 09:01:00,
2013-05-15 04:06:00,63.9,60.6,29.76,SSE,147,6.0,11.0,89,0.00,,---,0.18,0.00,VWS V14.00,2013-05-15 09:06:00,
2013-05-15 04:10:00,63.9,60.6,29.76,SE,136,7.0,12.0,89,0.00,,SKC,0.18,0.00,VWS V14.01,2013-05-15 09:10:00,
2013-05-15 04:11:00,63.9,60.6,29.76,SSE,160,4.0,12.0,89,0.00,,---,0.18,0.00,VWS V14.00,2013-05-15 09:11:00,
2013-05-15 04:16:00,63.9,60.6,29.76,SSE,147,2.0,13.0,89,0.00,,---,0.18,0.00,VWS V14.00,2013-05-15 09:16:00,
2013-05-15 04:20:00,64.1,60.5,29.75,SE,144,5.0,13.0,88,0.00,,SKC,0.18,0.00,VWS V14.01,2013-05-15 09:20:00,
2013-05-15 04:21:00,64.1,60.5,29.75,SE,143,2.0,13.0,88,0.00,,---,0.18,0.00,VWS V14.00,2013-05-15 09:21:00,
2013-05-15 04:26:00,64.2,60.6,29.75,SSE,159,5.0,10.0,88,0.00,,---,0.18,0.00,VWS V14.00,2013-05-15 09:26:00,
2013-05-15 04:30:00,64.3,60.7,29.73,SSE,151,7.0,10.0,88,0.00,,SKC,0.18,0.00,VWS V14.01,2013-05-15 09:30:00,
2013-05-15 04:31:00,64.3,60.7,29.73,SSE,151,4.0,10.0,88,0.00,,---,0.18,0.00,VWS V14.00,2013-05-15 09:31:00,
2013-05-15 04:36:00,64.3,60.7,29.73,SSE,151,6.0,8.0,88,0.00,,---,0.18,0.00,VWS V14.00,2013-05-15 09:36:00,
2013-05-15 04:40:00,64.3,60.7,29.73,SSE,149,4.0,9.0,88,0.00,,SKC,0.18,0.00,VWS V14.01,2013-05-15 09:40:00,
2013-05-15 04:41:00,64.3,60.7,29.73,SSE,149,7.0,9.0,88,0.00,,---,0.18,0.00,VWS V14.00,2013-05-15 09:41:00,
2013-05-15 04:46:00,64.3,60.7,29.73,SSE,149,2.0,10.0,88,0.00,,---,0.18,0.00,VWS V14.00,2013-05-15 09:46:00,
2013-05-15 04:50:00,64.3,61.0,29.72,SE,135,7.0,10.0,89,0.00,,SKC,0.18,0.00,VWS V14.01,2013-05-15 09:50:00,
2013-05-15 04:51:00,64.3,61.0,29.72,SE,136,8.0,10.0,89,0.00,,---,0.18,0.00,VWS V14.00,2013-05-15 09:51:00,
2013-05-15 04:56:00,64.3,61.0,29.71,SE,127,7.0,9.0,89,0.00,,---,0.18,0.00,VWS V14.00,2013-05-15 09:56:00,
2013-05-15 05:00:00,64.4,61.1,29.72,SE,125,5.0,11.0,89,0.00,,SKC,0.18,0.00,VWS V14.01,2013-05-15 10:00:00,
2013-05-15 05:01:00,64.4,61.1,29.72,SE,125,4.0,11.0,89,0.00,,---,0.18,0.00,VWS V14.00,2013-05-15 10:01:00,
2013-05-15 05:06:00,64.5,61.2,29.71,SE,126,5.0,9.0,89,0.00,,---,0.18,0.00,VWS V14.00,2013-05-15 10:06:00,
2013-05-15 05:10:00,64.5,61.2,29.70,ESE,123,6.0,9.0,89,0.00,,SKC,0.18,0.00,VWS V14.01,2013-05-15 10:10:00,
2013-05-15 05:11:00,64.5,61.2,29.70,ESE,123,6.0,9.0,89,0.00,,---,0.18,0.00,VWS V14.00,2013-05-15 10:11:00,
2013-05-15 05:16:00,64.4,61.4,29.70,ESE,121,5.0,8.0,90,0.00,,---,0.18,0.00,VWS V14.00,2013-05-15 10:16:00,
2013-05-15 05:20:00,64.4,61.4,29.70,ESE,121,4.0,8.0,90,0.00,,SKC,0.18,0.00,VWS V14.01,2013-05-15 10:20:00,
2013-05-15 05:21:00,64.4,61.4,29.70,ESE,121,1.0,8.0,90,0.00,,---,0.18,0.00,VWS V14.00,2013-05-15 10:21:00,
2013-05-15 05:26:00,64.5,61.5,29.71,ESE,121,4.0,7.0,90,0.00,,---,0.18,0.00,VWS V14.00,2013-05-15 10:26:00,
2013-05-15 05:30:00,64.5,61.5,29.72,ESE,123,1.0,8.0,90,0.00,,---,0.18,0.00,VWS V14.00,2013-05-15 10:30:00,
2013-05-15 05:35:00,64.6,61.6,29.73,SE,124,0.0,7.0,90,0.00,,---,0.18,0.00,VWS V14.00,2013-05-15 10:35:00,
2013-05-15 05:40:00,64.6,61.9,29.72,SE,124,6.0,7.0,91,0.00,,---,0.18,0.00,VWS V14.00,2013-05-15 10:40:00,
2013-05-15 05:45:00,64.7,62.0,29.74,SE,124,4.0,6.0,91,0.00,,---,0.18,0.00,VWS V14.00,2013-05-15 10:45:00,
2013-05-15 05:50:00,64.8,62.1,29.75,SE,124,5.0,6.0,91,0.00,,---,0.18,0.00,VWS V14.00,2013-05-15 10:50:00,
2013-05-15 05:55:00,65.0,62.6,29.75,SE,124,4.0,7.0,92,0.00,,---,0.18,0.00,VWS V14.00,2013-05-15 10:55:00,
2013-05-15 06:00:00,65.2,62.8,29.75,SE,124,0.0,7.0,92,0.00,,SKC,0.18,0.00,VWS V14.01,2013-05-15 11:00:00,
2013-05-15 06:01:00,65.2,62.8,29.75,SE,124,5.0,7.0,92,0.00,,---,0.18,0.00,VWS V14.00,2013-05-15 11:01:00,
2013-05-15 06:06:00,65.2,62.8,29.75,SE,124,4.0,5.0,92,0.00,,---,0.18,0.00,VWS V14.00,2013-05-15 11:06:00,
2013-05-15 06:10:00,65.3,62.9,29.75,SE,124,4.0,6.0,92,0.00,,SKC,0.18,0.00,VWS V14.01,2013-05-15 11:10:00,
2013-05-15 06:11:00,65.3,62.9,29.75,SE,124,4.0,5.0,92,0.00,,---,0.18,0.00,VWS V14.00,2013-05-15 11:11:00,
2013-05-15 06:16:00,65.3,62.9,29.75,SE,124,2.0,5.0,92,0.00,,---,0.18,0.00,VWS V14.00,2013-05-15 11:16:00,
2013-05-15 06:20:00,65.3,62.9,29.75,SE,124,4.0,6.0,92,0.00,,SKC,0.18,0.00,VWS V14.01,2013-05-15 11:20:00,
2013-05-15 06:21:00,65.3,62.9,29.75,SE,124,4.0,6.0,92,0.00,,---,0.18,0.00,VWS V14.00,2013-05-15 11:21:00,
2013-05-15 06:26:00,65.4,63.0,29.75,SE,124,5.0,6.0,92,0.00,,---,0.18,0.00,VWS V14.00,2013-05-15 11:26:00,
2013-05-15 06:30:00,65.3,62.9,29.75,SE,124,1.0,6.0,92,0.00,,SKC,0.18,0.00,VWS V14.01,2013-05-15 11:30:00,
2013-05-15 06:31:00,65.3,62.9,29.75,SE,124,4.0,6.0,92,0.00,,---,0.18,0.00,VWS V14.00,2013-05-15 11:31:00,
2013-05-15 06:36:00,65.3,62.9,29.75,SE,124,2.0,5.0,92,0.00,,---,0.18,0.00,VWS V14.00,2013-05-15 11:36:00,
2013-05-15 06:40:00,65.2,62.8,29.75,SE,124,1.0,8.0,92,0.00,,SKC,0.18,0.00,VWS V14.01,2013-05-15 11:40:00,
2013-05-15 06:41:00,65.2,62.8,29.75,SE,124,1.0,1.0,92,0.00,,---,0.18,0.00,VWS V14.00,2013-05-15 11:41:00,
2013-05-15 06:47:00,65.2,62.8,29.75,SE,124,2.0,5.0,92,0.00,,---,0.18,0.00,VWS V14.00,2013-05-15 11:47:00,
2013-05-15 06:50:00,65.2,62.8,29.74,SE,124,2.0,6.0,92,0.00,,SKC,0.18,5.00,VWS V14.01,2013-05-15 11:50:00,
2013-05-15 06:52:00,65.2,62.8,29.74,SE,124,2.0,4.0,92,0.00,,---,0.18,5.00,VWS V14.00,2013-05-15 11:52:00,
2013-05-15 06:57:00,65.1,62.4,29.75,SE,124,2.0,9.0,91,0.00,,---,0.18,7.00,VWS V14.00,2013-05-15 11:57:00,
2013-05-15 07:00:00,65.1,62.4,29.74,SE,124,0.0,9.0,91,0.00,,SKC,0.18,14.00,VWS V14.01,2013-05-15 12:00:00,
2013-05-15 07:02:00,65.1,62.4,29.74,SE,124,4.0,5.0,91,0.00,,---,0.18,14.00,VWS V14.00,2013-05-15 12:02:00,
2013-05-15 07:07:00,65.1,62.4,29.74,SE,124,2.0,9.0,91,0.00,,---,0.18,40.00,VWS V14.00,2013-05-15 12:07:00,
2013-05-15 07:10:00,65.1,62.1,29.74,SE,124,4.0,9.0,90,0.00,,SKC,0.18,49.00,VWS V14.01,2013-05-15 12:10:00,
2013-05-15 07:12:00,65.0,62.0,29.74,SE,124,5.0,5.0,90,0.00,,---,0.18,49.00,VWS V14.00,2013-05-15 12:12:00,
2013-05-15 07:17:00,65.1,62.1,29.74,SE,124,4.0,7.0,90,0.00,,---,0.18,49.00,VWS V14.00,2013-05-15 12:17:00,
2013-05-15 07:20:00,65.1,62.1,29.74,SE,124,5.0,7.0,90,0.00,,SKC,0.18,49.00,VWS V14.01,2013-05-15 12:20:00,
2013-05-15 07:22:00,65.1,62.1,29.74,SE,124,4.0,8.0,90,0.00,,---,0.18,49.00,VWS V14.00,2013-05-15 12:22:00,
2013-05-15 07:27:00,65.1,62.1,29.74,SE,125,6.0,9.0,90,0.00,,---,0.18,46.00,VWS V14.00,2013-05-15 12:27:00,
2013-05-15 07:30:00,65.1,62.1,29.74,SE,125,7.0,9.0,90,0.00,,SKC,0.18,32.00,VWS V14.01,2013-05-15 12:30:00,
2013-05-15 07:32:00,65.1,61.8,29.74,SE,124,7.0,7.0,89,0.00,,---,0.18,32.00,VWS V14.00,2013-05-15 12:32:00,
2013-05-15 07:38:00,65.1,61.8,29.74,ESE,121,5.0,12.0,89,0.00,,---,0.18,28.00,VWS V14.00,2013-05-15 12:38:00,
2013-05-15 07:40:00,65.1,61.8,29.74,SE,127,1.0,12.0,89,0.00,,SKC,0.18,33.00,VWS V14.01,2013-05-15 12:40:00,
2013-05-15 07:43:00,65.2,61.9,29.74,SE,128,7.0,8.0,89,0.00,,---,0.18,42.00,VWS V14.00,2013-05-15 12:43:00,
2013-05-15 07:48:00,65.2,61.9,29.74,SE,127,4.0,8.0,89,0.00,,---,0.18,40.00,VWS V14.00,2013-05-15 12:48:00,
2013-05-15 07:50:00,65.3,62.3,29.74,SE,128,2.0,8.0,90,0.00,,SKC,0.18,56.00,VWS V14.01,2013-05-15 12:50:00,
2013-05-15 07:53:00,65.3,62.3,29.73,SE,127,7.0,9.0,90,0.00,,---,0.18,56.00,VWS V14.00,2013-05-15 12:53:00,
2013-05-15 07:58:00,65.4,62.4,29.73,SE,126,2.0,9.0,90,0.00,,---,0.18,77.00,VWS V14.00,2013-05-15 12:58:00,
2013-05-15 08:00:00,65.5,62.5,29.73,SE,130,6.0,11.0,90,0.00,,SKC,0.18,79.00,VWS V14.01,2013-05-15 13:00:00,
2013-05-15 08:03:00,65.6,62.9,29.74,SE,130,4.0,8.0,91,0.00,,---,0.18,102.00,VWS V14.00,2013-05-15 13:03:00,
2013-05-15 08:08:00,65.7,63.0,29.73,SE,129,7.0,8.0,91,0.00,,---,0.18,76.00,VWS V14.00,2013-05-15 13:08:00,
2013-05-15 08:10:00,65.8,63.1,29.73,SE,130,6.0,11.0,91,0.00,,SKC,0.18,97.00,VWS V14.01,2013-05-15 13:10:00,
2013-05-15 08:13:00,65.9,63.2,29.73,SE,129,5.0,7.0,91,0.00,,---,0.18,65.00,VWS V14.00,2013-05-15 13:13:00,
2013-05-15 08:18:00,66.1,63.4,29.73,SE,130,5.0,15.0,91,0.00,,---,0.18,149.00,VWS V14.00,2013-05-15 13:18:00,
2013-05-15 08:20:00,66.2,63.5,29.73,SE,130,7.0,15.0,91,0.00,,SKC,0.18,88.00,VWS V14.01,2013-05-15 13:20:00,
2013-05-15 08:23:00,66.3,63.6,29.73,SE,129,5.0,15.0,91,0.00,,---,0.18,79.00,VWS V14.00,2013-05-15 13:23:00,
2013-05-15 08:28:00,66.5,63.8,29.74,SE,128,7.0,15.0,91,0.00,,---,0.18,148.00,VWS V14.00,2013-05-15 13:28:00,
2013-05-15 08:30:00,66.7,64.0,29.74,SE,128,4.0,15.0,91,0.00,,SKC,0.18,171.00,VWS V14.01,2013-05-15 13:30:00,
2013-05-15 08:33:00,66.8,64.1,29.74,SE,130,14.0,14.0,91,0.00,,---,0.18,221.00,VWS V14.00,2013-05-15 13:33:00,
2013-05-15 08:38:00,67.1,64.4,29.73,SE,143,5.0,14.0,91,0.00,,---,0.18,83.00,VWS V14.00,2013-05-15 13:38:00,
2013-05-15 08:40:00,67.3,64.6,29.74,SE,144,4.0,14.0,91,0.00,,SKC,0.18,109.00,VWS V14.01,2013-05-15 13:40:00,
2013-05-15 08:43:00,67.4,64.7,29.74,SE,142,7.0,13.0,91,0.00,,---,0.18,100.00,VWS V14.00,2013-05-15 13:43:00,
2013-05-15 08:48:00,67.6,64.9,29.73,SE,142,6.0,13.0,91,0.00,,---,0.18,104.00,VWS V14.00,2013-05-15 13:48:00,
2013-05-15 08:50:00,67.7,65.0,29.73,SE,141,7.0,13.0,91,0.00,,SKC,0.18,116.00,VWS V14.01,2013-05-15 13:50:00,
2013-05-15 08:53:00,67.8,65.1,29.74,SE,141,4.0,10.0,91,0.00,,---,0.18,132.00,VWS V14.00,2013-05-15 13:53:00,
2013-05-15 08:59:00,68.0,65.0,29.73,SE,141,2.0,10.0,90,0.00,,---,0.18,91.00,VWS V14.00,2013-05-15 13:59:00,
2013-05-15 09:00:00,68.1,65.1,29.73,SE,141,4.0,10.0,90,0.00,,SKC,0.18,72.00,VWS V14.01,2013-05-15 14:00:00,
2013-05-15 09:03:00,68.2,65.2,29.73,SE,140,6.0,10.0,90,0.00,,---,0.18,86.00,VWS V14.00,2013-05-15 14:03:00,
2013-05-15 09:09:00,68.4,65.4,29.73,SE,140,5.0,10.0,90,0.00,,---,0.18,90.00,VWS V14.00,2013-05-15 14:09:00,
2013-05-15 09:10:00,68.5,65.5,29.73,SE,140,7.0,10.0,90,0.00,,SKC,0.18,72.00,VWS V14.01,2013-05-15 14:10:00,
2013-05-15 09:14:00,68.6,65.6,29.73,SE,140,0.0,7.0,90,0.00,,---,0.18,93.00,VWS V14.00,2013-05-15 14:14:00,
2013-05-15 09:18:00,68.7,65.7,29.73,SSE,157,5.0,10.0,90,0.00,,---,0.18,77.00,VWS V14.00,2013-05-15 14:18:00,
2013-05-15 09:20:00,68.8,65.8,29.73,SSE,157,5.0,10.0,90,0.00,,SKC,0.18,107.00,VWS V14.01,2013-05-15 14:20:00,
2013-05-15 09:24:00,68.9,65.8,29.73,SSE,157,5.0,8.0,90,0.00,,---,0.18,77.00,VWS V14.00,2013-05-15 14:24:00,
2013-05-15 09:29:00,69.0,65.6,29.72,SSE,157,4.0,9.0,89,0.00,,---,0.18,102.00,VWS V14.00,2013-05-15 14:29:00,
2013-05-15 09:30:00,69.1,65.7,29.72,SSE,149,2.0,10.0,89,0.00,,SKC,0.18,128.00,VWS V14.01,2013-05-15 14:30:00,
2013-05-15 09:34:00,69.3,65.9,29.72,SSE,148,5.0,9.0,89,0.00,,---,0.18,121.00,VWS V14.00,2013-05-15 14:34:00,
2013-05-15 09:39:00,69.5,66.1,29.72,SSE,150,7.0,9.0,89,0.00,,---,0.18,162.00,VWS V14.00,2013-05-15 14:39:00,
2013-05-15 09:40:00,69.6,66.2,29.72,SSE,150,5.0,10.0,89,0.00,,SKC,0.18,135.00,VWS V14.01,2013-05-15 14:40:00,
2013-05-15 09:44:00,69.8,66.4,29.72,SSE,150,7.0,8.0,89,0.00,,---,0.18,172.00,VWS V14.00,2013-05-15 14:44:00,
2013-05-15 09:49:00,70.0,66.3,29.71,SSE,150,5.0,9.0,88,0.00,,---,0.18,142.00,VWS V14.00,2013-05-15 14:49:00,
2013-05-15 09:50:00,70.1,66.4,29.71,SSE,150,4.0,9.0,88,0.00,,SKC,0.18,197.00,VWS V14.01,2013-05-15 14:50:00,
2013-05-15 09:55:00,70.3,66.6,29.71,SSE,151,7.0,11.0,88,0.00,,---,0.18,221.00,VWS V14.00,2013-05-15 14:55:00,
2013-05-15 10:00:00,70.5,66.8,29.70,SSE,152,9.0,12.0,88,0.00,,---,0.18,232.00,VWS V14.00,2013-05-15 15:00:00,
2013-05-15 10:05:00,70.8,66.7,29.70,SE,140,6.0,14.0,87,0.00,,---,0.18,171.00,VWS V14.00,2013-05-15 15:05:00,
2013-05-15 10:10:00,71.0,66.9,29.71,SE,146,8.0,14.0,87,0.00,,---,0.18,146.00,VWS V14.00,2013-05-15 15:10:00,
2013-05-15 10:15:00,71.1,66.7,29.70,SSE,157,6.0,14.0,86,0.00,,---,0.18,213.00,VWS V14.00,2013-05-15 15:15:00,
2013-05-15 10:20:00,71.3,66.9,29.70,SSW,193,4.0,14.0,86,0.00,,---,0.18,229.00,VWS V14.00,2013-05-15 15:20:00,
2013-05-15 10:25:00,71.5,67.1,29.70,SSE,153,7.0,9.0,86,0.00,,---,0.18,216.00,VWS V14.00,2013-05-15 15:25:00,
2013-05-15 10:30:00,71.8,67.4,29.70,SSW,198,11.0,14.0,86,0.00,,---,0.18,304.00,VWS V14.00,2013-05-15 15:30:00,
2013-05-15 10:36:00,72.1,67.0,29.70,South,175,7.0,15.0,84,0.00,,---,0.18,288.00,VWS V14.00,2013-05-15 15:36:00,
2013-05-15 10:40:00,72.4,67.3,29.70,SE,145,4.0,15.0,84,0.00,,SKC,0.18,322.00,VWS V14.01,2013-05-15 15:40:00,
2013-05-15 10:41:00,72.4,67.3,29.70,SE,142,8.0,15.0,84,0.00,,---,0.18,322.00,VWS V14.00,2013-05-15 15:41:00,
2013-05-15 10:46:00,72.7,67.2,29.70,SSE,155,11.0,21.0,83,0.00,,---,0.18,315.00,VWS V14.00,2013-05-15 15:46:00,
2013-05-15 10:50:00,73.0,67.2,29.69,SSE,153,8.0,23.0,82,0.00,,SKC,0.18,691.00,VWS V14.01,2013-05-15 15:50:00,
2013-05-15 10:51:00,73.0,67.2,29.69,SSE,166,6.0,23.0,82,0.00,,---,0.18,691.00,VWS V14.00,2013-05-15 15:51:00,
2013-05-15 10:56:00,73.4,67.6,29.70,SSW,192,4.0,18.0,82,0.00,,---,0.18,860.00,VWS V14.00,2013-05-15 15:56:00,
2013-05-15 11:00:00,73.9,67.7,29.70,SSE,159,10.0,18.0,81,0.00,,SKC,0.18,788.00,VWS V14.01,2013-05-15 16:00:00,
2013-05-15 11:01:00,73.9,67.7,29.70,SSE,166,12.0,18.0,81,0.00,,---,0.18,788.00,VWS V14.00,2013-05-15 16:01:00,
2013-05-15 11:06:00,74.2,68.0,29.70,SW,227,3.0,17.0,81,0.00,,---,0.18,415.00,VWS V14.00,2013-05-15 16:06:00,
2013-05-15 11:10:00,74.5,68.3,29.69,SSW,205,4.0,17.0,81,0.00,,SKC,0.18,522.00,VWS V14.01,2013-05-15 16:10:00,
2013-05-15 11:11:00,74.5,68.3,29.69,SSW,205,4.0,17.0,81,0.00,,---,0.18,522.00,VWS V14.00,2013-05-15 16:11:00,
2013-05-15 11:16:00,74.7,67.4,29.69,WSW,243,5.0,16.0,78,0.00,,---,0.18,406.00,VWS V14.00,2013-05-15 16:16:00,
2013-05-15 11:20:00,74.7,67.0,29.69,South,182,5.0,22.0,77,0.00,,SKC,0.18,366.00,VWS V14.01,2013-05-15 16:20:00,
2013-05-15 11:21:00,74.7,67.0,29.69,South,178,9.0,22.0,77,0.00,,---,0.18,366.00,VWS V14.00,2013-05-15 16:21:00,
2013-05-15 11:26:00,74.9,67.2,29.69,SSE,153,10.0,14.0,77,0.00,,---,0.18,490.00,VWS V14.00,2013-05-15 16:26:00,
2013-05-15 11:30:00,74.9,66.8,29.69,SE,134,7.0,17.0,76,0.00,,SKC,0.18,327.00,VWS V14.01,2013-05-15 16:30:00,
2013-05-15 11:31:00,75.0,66.9,29.69,SE,140,9.0,17.0,76,0.00,,---,0.18,327.00,VWS V14.00,2013-05-15 16:31:00,
2013-05-15 11:36:00,75.3,67.6,29.69,SSE,166,6.0,17.0,77,0.00,,---,0.18,844.00,VWS V14.00,2013-05-15 16:36:00,
2013-05-15 11:40:00,75.4,67.3,29.69,SE,142,6.0,17.0,76,0.00,,SKC,0.18,844.00,VWS V14.01,2013-05-15 16:40:00,
2013-05-15 11:41:00,75.4,67.3,29.69,SE,142,5.0,17.0,76,0.00,,---,0.18,844.00,VWS V14.00,2013-05-15 16:41:00,
2013-05-15 11:46:00,75.5,67.4,29.68,East,88,12.0,24.0,76,0.00,,---,0.18,844.00,VWS V14.00,2013-05-15 16:46:00,
2013-05-15 11:50:00,75.9,67.4,29.68,SSW,213,5.0,24.0,75,0.00,,SKC,0.18,397.00,VWS V14.01,2013-05-15 16:50:00,
2013-05-15 11:51:00,75.9,67.4,29.68,SSW,213,5.0,24.0,75,0.00,,---,0.18,397.00,VWS V14.00,2013-05-15 16:51:00,
2013-05-15 11:57:00,76.2,67.7,29.69,SSW,194,8.0,13.0,75,0.00,,---,0.18,343.00,VWS V14.00,2013-05-15 16:57:00,
2013-05-15 12:00:00,76.5,68.0,29.68,SW,229,4.0,13.0,75,0.00,,SKC,0.18,427.00,VWS V14.01,2013-05-15 17:00:00,
2013-05-15 12:02:00,76.5,68.0,29.68,SE,139,14.0,14.0,75,0.00,,---,0.18,427.00,VWS V14.00,2013-05-15 17:02:00,
2013-05-15 12:07:00,76.8,67.1,29.69,SW,221,2.0,14.0,72,0.00,,---,0.18,431.00,VWS V14.00,2013-05-15 17:07:00,
2013-05-15 12:10:00,76.7,67.0,29.69,West,262,5.0,14.0,72,0.00,,SKC,0.18,399.00,VWS V14.01,2013-05-15 17:10:00,
2013-05-15 12:12:00,76.7,66.6,29.68,SE,135,0.0,10.0,71,0.00,,---,0.18,399.00,VWS V14.00,2013-05-15 17:12:00,
2013-05-15 12:17:00,77.2,67.1,29.68,SSE,157,16.0,17.0,71,0.00,,---,0.18,1107.00,VWS V14.00,2013-05-15 17:17:00,
2013-05-15 12:20:00,77.6,66.6,29.68,South,175,11.0,17.0,69,0.00,,SKC,0.18,628.00,VWS V14.01,2013-05-15 17:20:00,
2013-05-15 12:22:00,77.6,66.6,29.67,SE,134,12.0,13.0,69,0.00,,---,0.18,628.00,VWS V14.00,2013-05-15 17:22:00,
2013-05-15 12:27:00,77.9,66.9,29.67,SE,144,7.0,18.0,69,0.00,,---,0.18,1009.00,VWS V14.00,2013-05-15 17:27:00,
2013-05-15 12:30:00,78.2,66.8,29.67,SSE,155,11.0,18.0,68,0.00,,SKC,0.18,281.00,VWS V14.01,2013-05-15 17:30:00,
2013-05-15 12:32:00,78.2,66.8,29.67,SE,142,8.0,13.0,68,0.00,,---,0.18,281.00,VWS V14.00,2013-05-15 17:32:00,
2013-05-15 12:37:00,78.3,66.9,29.67,SSE,151,5.0,15.0,68,0.00,,---,0.18,1083.00,VWS V14.00,2013-05-15 17:37:00,
2013-05-15 12:40:00,78.8,67.8,29.67,South,188,5.0,15.0,69,0.00,,SKC,0.18,1132.00,VWS V14.01,2013-05-15 17:40:00,
2013-05-15 12:42:00,78.9,67.9,29.67,SE,142,4.0,10.0,69,0.00,,---,0.18,1132.00,VWS V14.00,2013-05-15 17:42:00,
2013-05-15 12:47:00,78.9,67.0,29.67,SSE,151,9.0,13.0,67,0.00,,---,0.18,332.00,VWS V14.00,2013-05-15 17:47:00,
2013-05-15 12:50:00,78.9,67.4,29.67,SSW,200,7.0,13.0,68,0.00,,SKC,0.18,1067.00,VWS V14.01,2013-05-15 17:50:00,
2013-05-15 12:52:00,78.9,67.4,29.67,South,189,5.0,14.0,68,0.00,,---,0.18,1058.00,VWS V14.00,2013-05-15 17:52:00,
2013-05-15 12:57:00,79.2,67.3,29.66,SE,143,10.0,18.0,67,0.00,,---,0.18,366.00,VWS V14.00,2013-05-15 17:57:00,
2013-05-15 13:00:00,79.2,67.3,29.65,SSE,156,8.0,18.0,67,0.00,,SKC,0.18,1009.00,VWS V14.01,2013-05-15 18:00:00,
2013-05-15 13:02:00,79.3,67.4,29.65,South,170,7.0,7.0,67,0.00,,---,0.18,1037.00,VWS V14.00,2013-05-15 18:02:00,
2013-05-15 13:07:00,79.6,67.2,29.65,South,175,5.0,13.0,66,0.00,,---,0.18,1069.00,VWS V14.00,2013-05-15 18:07:00,
2013-05-15 13:10:00,79.4,67.5,29.65,SE,146,14.0,15.0,67,0.00,,SKC,0.18,1074.00,VWS V14.01,2013-05-15 18:10:00,
2013-05-15 13:12:00,79.5,67.2,29.65,SE,146,9.0,12.0,66,0.00,,---,0.18,970.00,VWS V14.00,2013-05-15 18:12:00,
2013-05-15 13:17:00,79.5,67.2,29.66,SE,127,5.0,15.0,66,0.00,,---,0.18,374.00,VWS V14.00,2013-05-15 18:17:00,
2013-05-15 13:20:00,79.2,66.9,29.66,SSE,160,11.0,19.0,66,0.00,,SKC,0.18,784.00,VWS V14.01,2013-05-15 18:20:00,
2013-05-15 13:22:00,79.2,66.9,29.66,SE,130,6.0,15.0,66,0.00,,---,0.18,784.00,VWS V14.00,2013-05-15 18:22:00,
2013-05-15 13:27:00,79.2,67.3,29.65,SSE,157,14.0,15.0,67,0.00,,---,0.18,1167.00,VWS V14.00,2013-05-15 18:27:00,
2013-05-15 13:30:00,79.6,66.8,29.65,South,186,6.0,18.0,65,0.00,,SKC,0.18,1125.00,VWS V14.01,2013-05-15 18:30:00,
2013-05-15 13:32:00,79.7,67.3,29.65,SSW,196,4.0,11.0,66,0.00,,---,0.18,1132.00,VWS V14.00,2013-05-15 18:32:00,
2013-05-15 13:37:00,79.8,67.0,29.65,SSE,152,6.0,18.0,65,0.00,,---,0.18,1092.00,VWS V14.00,2013-05-15 18:37:00,
2013-05-15 13:40:00,80.2,66.9,29.64,SSE,155,8.0,18.0,64,0.00,,SKC,0.18,1041.00,VWS V14.01,2013-05-15 18:40:00,
2013-05-15 13:42:00,80.2,66.9,29.64,SSE,155,5.0,8.0,64,0.00,,---,0.18,1065.00,VWS V14.00,2013-05-15 18:42:00,
2013-05-15 13:47:00,80.6,67.3,29.64,SSW,198,12.0,18.0,64,0.00,,---,0.18,1127.00,VWS V14.00,2013-05-15 18:47:00,
2013-05-15 13:50:00,80.8,67.0,29.65,SSW,203,4.0,18.0,63,0.00,,SKC,0.18,1199.00,VWS V14.01,2013-05-15 18:50:00,
2013-05-15 13:52:00,80.8,67.0,29.64,WSW,247,7.0,13.0,63,0.00,,---,0.18,1199.00,VWS V14.00,2013-05-15 18:52:00,
2013-05-15 13:57:00,80.9,67.6,29.64,SE,143,6.0,18.0,64,0.00,,---,0.18,947.00,VWS V14.00,2013-05-15 18:57:00,
2013-05-15 14:00:00,80.6,66.8,29.63,SSE,155,11.0,18.0,63,0.00,,SKC,0.18,399.00,VWS V14.01,2013-05-15 19:00:00,
2013-05-15 14:03:00,80.5,66.8,29.63,SSE,163,13.0,15.0,63,0.00,,---,0.18,399.00,VWS V14.00,2013-05-15 19:03:00,
2013-05-15 14:08:00,80.5,66.8,29.63,SSE,165,9.0,20.0,63,0.00,,---,0.18,262.00,VWS V14.00,2013-05-15 19:08:00,
2013-05-15 14:10:00,80.5,67.2,29.63,SE,146,11.0,20.0,64,0.00,,SKC,0.18,1018.00,VWS V14.01,2013-05-15 19:10:00,
2013-05-15 14:13:00,80.6,66.4,29.63,SE,126,11.0,19.0,62,0.00,,---,0.18,1005.00,VWS V14.00,2013-05-15 19:13:00,
2013-05-15 14:18:00,80.8,67.0,29.63,South,186,6.0,19.0,63,0.00,,---,0.18,1014.00,VWS V14.00,2013-05-15 19:18:00,
2013-05-15 14:20:00,81.0,67.2,29.62,SW,221,6.0,19.0,63,0.00,,SKC,0.18,997.00,VWS V14.01,2013-05-15 19:20:00,
2013-05-15 14:23:00,81.2,67.4,29.61,SSE,166,6.0,11.0,63,0.00,,---,0.18,993.00,VWS V14.00,2013-05-15 19:23:00,
2013-05-15 14:28:00,81.6,67.3,29.61,South,178,9.0,17.0,62,0.00,,---,0.18,993.00,VWS V14.00,2013-05-15 19:28:00,
2013-05-15 14:30:00,81.9,67.1,29.61,SSE,153,9.0,20.0,61,0.00,,SKC,0.18,923.00,VWS V14.01,2013-05-15 19:30:00,
2013-05-15 14:33:00,81.9,66.2,29.62,South,169,8.0,18.0,59,0.00,,---,0.18,455.00,VWS V14.00,2013-05-15 19:33:00,
2013-05-15 14:39:00,81.7,66.9,29.61,South,174,7.0,21.0,61,0.00,,---,0.18,1035.00,VWS V14.00,2013-05-15 19:39:00,
2013-05-15 14:40:00,81.8,67.5,29.60,SE,144,7.0,21.0,62,0.00,,SKC,0.18,1039.00,VWS V14.01,2013-05-15 19:40:00,
2013-05-15 14:44:00,81.9,67.1,29.60,SSE,150,9.0,18.0,61,0.00,,---,0.18,956.00,VWS V14.00,2013-05-15 19:44:00,
2013-05-15 14:49:00,82.3,68.0,29.60,WSW,253,10.0,18.0,62,0.00,,---,0.18,951.00,VWS V14.00,2013-05-15 19:49:00,
2013-05-15 14:50:00,82.5,67.2,29.61,SSE,162,13.0,20.0,60,0.00,,SKC,0.18,960.00,VWS V14.01,2013-05-15 19:50:00,
2013-05-15 14:54:00,82.3,66.1,29.60,SSE,153,5.0,17.0,58,0.00,,---,0.18,947.00,VWS V14.00,2013-05-15 19:54:00,
2013-05-15 14:59:00,82.3,67.0,29.60,SE,140,9.0,19.0,60,0.00,,---,0.18,888.00,VWS V14.00,2013-05-15 19:59:00,
2013-05-15 15:00:00,82.2,66.5,29.59,SSE,152,9.0,19.0,59,0.00,,SKC,0.18,935.00,VWS V14.01,2013-05-15 20:00:00,
2013-05-15 15:04:00,82.2,66.9,29.60,South,171,7.0,18.0,60,0.00,,---,0.18,935.00,VWS V14.00,2013-05-15 20:04:00,
2013-05-15 15:09:00,82.6,67.3,29.59,SE,140,5.0,22.0,60,0.00,,---,0.18,925.00,VWS V14.00,2013-05-15 20:09:00,
2013-05-15 15:10:00,82.9,67.6,29.59,SSE,163,7.0,22.0,60,0.00,,SKC,0.18,921.00,VWS V14.01,2013-05-15 20:10:00,
2013-05-15 15:14:00,82.9,67.6,29.59,SSE,149,15.0,17.0,60,0.00,,---,0.18,928.00,VWS V14.00,2013-05-15 20:14:00,
2013-05-15 15:19:00,83.0,66.7,29.58,SSE,161,7.0,17.0,58,0.00,,---,0.18,911.00,VWS V14.00,2013-05-15 20:19:00,
2013-05-15 15:20:00,83.1,67.8,29.59,South,173,11.0,17.0,60,0.00,,SKC,0.18,907.00,VWS V14.01,2013-05-15 20:20:00,
2013-05-15 15:24:00,83.2,66.9,29.58,ESE,113,7.0,21.0,58,0.00,,---,0.18,877.00,VWS V14.00,2013-05-15 20:24:00,
2013-05-15 15:29:00,83.2,66.4,29.58,South,172,7.0,24.0,57,0.00,,---,0.18,888.00,VWS V14.00,2013-05-15 20:29:00,
2013-05-15 15:30:00,83.2,66.9,29.58,SE,135,8.0,24.0,58,0.00,,SKC,0.18,893.00,VWS V14.01,2013-05-15 20:30:00,
2013-05-15 15:35:00,83.1,66.3,29.58,SSE,157,4.0,20.0,57,0.00,,---,0.18,879.00,VWS V14.00,2013-05-15 20:35:00,
2013-05-15 15:40:00,83.4,68.1,29.58,SE,144,4.0,20.0,60,0.00,,---,0.18,874.00,VWS V14.00,2013-05-15 20:40:00,
2013-05-15 15:45:00,83.7,66.9,29.58,ESE,117,14.0,17.0,57,0.00,,---,0.18,861.00,VWS V14.00,2013-05-15 20:45:00,
2013-05-15 15:50:00,83.7,66.9,29.57,South,171,8.0,17.0,57,0.00,,---,0.18,849.00,VWS V14.00,2013-05-15 20:50:00,
2013-05-15 15:55:00,83.9,67.1,29.57,SSE,156,2.0,15.0,57,0.00,,---,0.18,842.00,VWS V14.00,2013-05-15 20:55:00,
2013-05-15 16:00:00,84.2,67.3,29.56,SE,142,5.0,15.0,57,0.00,,---,0.18,819.00,VWS V14.00,2013-05-15 21:00:00,
2013-05-15 16:05:00,84.7,67.3,29.56,South,178,11.0,20.0,56,0.00,,---,0.18,823.00,VWS V14.00,2013-05-15 21:05:00,
2013-05-15 16:10:00,84.7,66.2,29.56,ESE,117,11.0,21.0,54,0.00,,---,0.18,872.00,VWS V14.00,2013-05-15 21:10:00,
2013-05-15 16:15:00,84.6,65.6,29.56,SSE,151,6.0,20.0,53,0.00,,---,0.18,812.00,VWS V14.00,2013-05-15 21:15:00,
2013-05-15 16:20:00,85.0,68.1,29.56,SSW,199,4.0,20.0,57,0.00,,---,0.18,821.00,VWS V14.00,2013-05-15 21:20:00,
2013-05-15 16:25:00,85.5,67.5,29.56,SSE,157,13.0,14.0,55,0.00,,---,0.18,772.00,VWS V14.00,2013-05-15 21:25:00,
2013-05-15 16:30:00,85.5,67.0,29.56,SSE,155,8.0,17.0,54,0.00,,---,0.18,770.00,VWS V14.00,2013-05-15 21:30:00,
2013-05-15 16:35:00,85.0,66.5,29.56,SSW,209,10.0,14.0,54,0.00,,---,0.18,833.00,VWS V14.00,2013-05-15 21:35:00,
2013-05-15 16:40:00,85.1,66.1,29.55,SSE,157,8.0,15.0,53,0.00,,---,0.18,833.00,VWS V14.00,2013-05-15 21:40:00,
2013-05-15 16:45:00,84.9,66.9,29.55,SSE,157,8.0,15.0,55,0.00,,---,0.18,793.00,VWS V14.00,2013-05-15 21:45:00,
2013-05-15 16:50:00,85.1,66.6,29.55,South,188,6.0,15.0,54,0.00,,---,0.18,719.00,VWS V14.00,2013-05-15 21:50:00,
2013-05-15 16:55:00,85.3,66.8,29.55,SSW,207,6.0,17.0,54,0.00,,---,0.18,710.00,VWS V14.00,2013-05-15 21:55:00,
2013-05-15 17:00:00,85.3,67.3,29.55,SSW,209,4.0,17.0,55,0.00,,---,0.18,204.00,VWS V14.00,2013-05-15 22:00:00,
2013-05-15 17:06:00,85.5,67.0,29.55,SSW,202,4.0,13.0,54,0.00,,---,0.18,142.00,VWS V14.00,2013-05-15 22:06:00,
2013-05-15 17:10:00,85.4,66.3,29.55,SSE,168,8.0,13.0,53,0.00,,SKC,0.18,715.00,VWS V14.01,2013-05-15 22:10:00,
2013-05-15 17:11:00,85.4,65.8,29.55,South,181,2.0,13.0,52,0.00,,---,0.18,707.00,VWS V14.00,2013-05-15 22:11:00,
2013-05-15 17:16:00,85.7,65.5,29.54,South,177,9.0,14.0,51,0.00,,---,0.18,726.00,VWS V14.00,2013-05-15 22:16:00,
2013-05-15 17:20:00,85.9,66.2,29.54,WSW,248,14.0,14.0,52,0.00,,SKC,0.18,691.00,VWS V14.01,2013-05-15 22:20:00,
2013-05-15 17:21:00,85.9,66.2,29.54,SSW,202,6.0,14.0,52,0.00,,---,0.18,691.00,VWS V14.00,2013-05-15 22:21:00,
2013-05-15 17:26:00,86.0,65.8,29.54,SE,138,2.0,13.0,51,0.00,,---,0.18,612.00,VWS V14.00,2013-05-15 22:26:00,
2013-05-15 17:30:00,85.8,65.0,29.54,SSW,199,11.0,13.0,50,0.00,,SKC,0.18,580.00,VWS V14.01,2013-05-15 22:30:00,
2013-05-15 17:31:00,85.9,65.7,29.54,South,175,9.0,13.0,51,0.00,,---,0.18,580.00,VWS V14.00,2013-05-15 22:31:00,
2013-05-15 17:36:00,85.6,64.8,29.53,WSW,246,11.0,13.0,50,0.00,,---,0.18,575.00,VWS V14.00,2013-05-15 22:36:00,
2013-05-15 17:40:00,85.7,64.4,29.53,SSE,157,4.0,13.0,49,0.00,,SKC,0.18,536.00,VWS V14.01,2013-05-15 22:40:00,
2013-05-15 17:41:00,85.7,64.4,29.53,SSE,157,8.0,13.0,49,0.00,,---,0.18,536.00,VWS V14.00,2013-05-15 22:41:00,
2013-05-15 17:46:00,85.8,65.0,29.52,SE,142,4.0,12.0,50,0.00,,---,0.18,524.00,VWS V14.00,2013-05-15 22:46:00,
2013-05-15 17:50:00,86.0,65.2,29.52,SSE,153,13.0,15.0,50,0.00,,SKC,0.18,496.00,VWS V14.01,2013-05-15 22:50:00,
2013-05-15 17:51:00,86.0,65.2,29.52,SSE,161,10.0,15.0,50,0.00,,---,0.18,503.00,VWS V14.00,2013-05-15 22:51:00,
2013-05-15 17:56:00,86.0,65.2,29.52,SSE,166,7.0,14.0,50,0.00,,---,0.18,480.00,VWS V14.00,2013-05-15 22:56:00,
2013-05-15 18:00:00,86.1,65.3,29.51,South,173,1.0,14.0,50,0.00,,SKC,0.18,464.00,VWS V14.01,2013-05-15 23:00:00,
2013-05-15 18:01:00,86.1,65.3,29.51,South,173,1.0,14.0,50,0.00,,---,0.18,464.00,VWS V14.00,2013-05-15 23:01:00,
2013-05-15 18:06:00,86.3,64.9,29.51,SSE,151,9.0,14.0,49,0.00,,---,0.18,443.00,VWS V14.00,2013-05-15 23:06:00,
2013-05-15 18:10:00,86.2,64.8,29.51,SE,127,9.0,23.0,49,0.00,,SKC,0.18,438.00,VWS V14.01,2013-05-15 23:10:00,
2013-05-15 18:11:00,86.2,65.4,29.51,SE,131,9.0,9.0,50,0.00,,---,0.18,438.00,VWS V14.00,2013-05-15 23:11:00,
2013-05-15 18:16:00,85.9,65.1,29.51,ESE,123,4.0,17.0,50,0.00,,---,0.18,429.00,VWS V14.00,2013-05-15 23:16:00,
2013-05-15 18:20:00,85.8,66.2,29.50,SE,144,6.0,17.0,52,0.00,,SKC,0.18,388.00,VWS V14.01,2013-05-15 23:20:00,
2013-05-15 18:21:00,85.8,66.2,29.50,SE,143,6.0,6.0,52,0.00,,---,0.18,388.00,VWS V14.00,2013-05-15 23:21:00,
2013-05-15 18:27:00,85.7,66.1,29.50,SE,124,7.0,17.0,52,0.00,,---,0.18,362.00,VWS V14.00,2013-05-15 23:27:00,
2013-05-15 18:30:00,85.6,66.5,29.50,SE,125,9.0,18.0,53,0.00,,SKC,0.18,343.00,VWS V14.01,2013-05-15 23:30:00,
2013-05-15 18:32:00,85.5,66.4,29.50,SE,128,8.0,17.0,53,0.00,,---,0.18,343.00,VWS V14.00,2013-05-15 23:32:00,
2013-05-15 18:37:00,85.3,66.2,29.50,SSE,149,7.0,17.0,53,0.00,,---,0.18,322.00,VWS V14.00,2013-05-15 23:37:00,
2013-05-15 18:40:00,85.1,66.6,29.49,South,186,4.0,17.0,54,0.00,,SKC,0.18,306.00,VWS V14.01,2013-05-15 23:40:00,
2013-05-15 18:42:00,85.1,66.6,29.49,SSE,165,10.0,10.0,54,0.00,,---,0.18,302.00,VWS V14.00,2013-05-15 23:42:00,
2013-05-15 18:47:00,84.9,66.9,29.49,SE,146,10.0,14.0,55,0.00,,---,0.18,281.00,VWS V14.00,2013-05-15 23:47:00,
2013-05-15 18:50:00,84.8,67.4,29.49,South,170,6.0,14.0,56,0.00,,SKC,0.18,267.00,VWS V14.01,2013-05-15 23:50:00,
2013-05-15 18:52:00,84.8,67.4,29.49,SSE,161,6.0,11.0,56,0.00,,---,0.18,262.00,VWS V14.00,2013-05-15 23:52:00,
2013-05-15 18:57:00,84.7,66.8,29.49,SSE,158,7.0,20.0,55,0.00,,---,0.18,246.00,VWS V14.00,2013-05-15 23:57:00,
2013-05-15 19:00:00,84.5,66.6,29.49,SE,136,17.0,20.0,55,0.00,,SKC,0.18,225.00,VWS V14.01,2013-05-16 00:00:00,
2013-05-15 19:03:00,84.5,66.6,29.48,SSE,162,6.0,16.0,55,0.00,,---,0.18,227.00,VWS V14.00,2013-05-16 00:03:00,
2013-05-15 19:08:00,84.2,67.3,29.48,SSE,158,7.0,16.0,57,0.00,,---,0.18,211.00,VWS V14.00,2013-05-16 00:08:00,
2013-05-15 19:10:00,83.9,67.6,29.48,SSE,162,13.0,17.0,58,0.00,,SKC,0.18,199.00,VWS V14.01,2013-05-16 00:10:00,
2013-05-15 19:13:00,83.9,67.6,29.48,SSE,161,9.0,15.0,58,0.00,,---,0.18,192.00,VWS V14.00,2013-05-16 00:13:00,
2013-05-15 19:18:00,83.5,67.7,29.48,SSE,150,9.0,15.0,59,0.00,,---,0.18,171.00,VWS V14.00,2013-05-16 00:18:00,
2013-05-15 19:20:00,83.3,67.5,29.48,SE,142,13.0,22.0,59,0.00,,SKC,0.18,155.00,VWS V14.01,2013-05-16 00:20:00,
2013-05-15 19:23:00,83.2,67.9,29.47,SSE,151,8.0,15.0,60,0.00,,---,0.18,146.00,VWS V14.00,2013-05-16 00:23:00,
2013-05-15 19:28:00,82.9,67.6,29.47,ESE,115,5.0,15.0,60,0.00,,---,0.18,127.00,VWS V14.00,2013-05-16 00:28:00,
2013-05-15 19:30:00,82.7,67.4,29.47,SE,135,10.0,17.0,60,0.00,,SKC,0.18,114.00,VWS V14.01,2013-05-16 00:30:00,
2013-05-15 19:33:00,82.6,67.8,29.47,SE,139,8.0,17.0,61,0.00,,---,0.18,111.00,VWS V14.00,2013-05-16 00:33:00,
2013-05-15 19:39:00,82.3,67.5,29.47,SE,134,12.0,17.0,61,0.00,,---,0.18,93.00,VWS V14.00,2013-05-16 00:39:00,
2013-05-15 19:40:00,82.1,67.3,29.47,ESE,116,11.0,17.0,61,0.00,,SKC,0.18,83.00,VWS V14.01,2013-05-16 00:40:00,
2013-05-15 19:44:00,82.0,67.7,29.47,SE,139,11.0,12.0,62,0.00,,---,0.18,74.00,VWS V14.00,2013-05-16 00:44:00,
2013-05-15 19:49:00,81.8,67.5,29.47,SE,143,12.0,14.0,62,0.00,,---,0.18,58.00,VWS V14.00,2013-05-16 00:49:00,
2013-05-15 19:50:00,81.6,67.3,29.47,SE,146,8.0,14.0,62,0.00,,SKC,0.18,53.00,VWS V14.01,2013-05-16 00:50:00,
2013-05-15 19:54:00,81.5,67.2,29.48,SE,145,8.0,13.0,62,0.00,,---,0.18,44.00,VWS V14.00,2013-05-16 00:54:00,
2013-05-15 19:59:00,81.3,67.5,29.48,SE,125,8.0,18.0,63,0.00,,---,0.18,33.00,VWS V14.00,2013-05-16 00:59:00,
2013-05-15 20:00:00,81.1,67.3,29.48,ESE,111,8.0,18.0,63,0.00,,SKC,0.18,28.00,VWS V14.01,2013-05-16 01:00:00,
2013-05-15 20:04:00,81.0,67.2,29.48,SE,132,12.0,12.0,63,0.00,,---,0.18,25.00,VWS V14.00,2013-05-16 01:04:00,
2013-05-15 20:09:00,80.8,67.5,29.48,SE,135,8.0,14.0,64,0.00,,---,0.18,16.00,VWS V14.00,2013-05-16 01:09:00,
2013-05-15 20:10:00,80.7,67.4,29.48,SSE,159,5.0,14.0,64,0.00,,SKC,0.18,12.00,VWS V14.01,2013-05-16 01:10:00,
2013-05-15 20:14:00,80.5,67.2,29.48,ESE,122,6.0,12.0,64,0.00,,---,0.18,11.00,VWS V14.00,2013-05-16 01:14:00,
2013-05-15 20:19:00,80.2,67.4,29.48,SE,142,12.0,13.0,65,0.00,,---,0.18,7.00,VWS V14.00,2013-05-16 01:19:00,
2013-05-15 20:20:00,80.1,67.7,29.48,SSE,162,5.0,15.0,66,0.00,,SKC,0.18,5.00,VWS V14.01,2013-05-16 01:20:00,
2013-05-15 20:24:00,80.0,67.6,29.48,SSE,158,7.0,15.0,66,0.00,,---,0.18,0.00,VWS V14.00,2013-05-16 01:24:00,
2013-05-15 20:29:00,79.7,67.8,29.48,ESE,121,7.0,15.0,67,0.00,,---,0.18,0.00,VWS V14.00,2013-05-16 01:29:00,
2013-05-15 20:30:00,79.6,67.7,29.48,SE,126,8.0,17.0,67,0.00,,SKC,0.18,0.00,VWS V14.01,2013-05-16 01:30:00,
2013-05-15 20:34:00,79.5,67.6,29.48,SSE,147,5.0,14.0,67,0.00,,---,0.18,0.00,VWS V14.00,2013-05-16 01:34:00,
2013-05-15 20:39:00,79.2,67.7,29.48,SE,129,6.0,17.0,68,0.00,,---,0.18,0.00,VWS V14.00,2013-05-16 01:39:00,
2013-05-15 20:40:00,79.1,67.6,29.48,SE,139,6.0,17.0,68,0.00,,SKC,0.18,0.00,VWS V14.01,2013-05-16 01:40:00,
2013-05-15 20:44:00,79.0,68.0,29.48,ESE,121,6.0,12.0,69,0.00,,---,0.18,0.00,VWS V14.00,2013-05-16 01:44:00,
2013-05-15 20:49:00,78.8,67.8,29.48,SE,132,7.0,14.0,69,0.00,,---,0.18,0.00,VWS V14.00,2013-05-16 01:49:00,
2013-05-15 20:50:00,78.7,67.7,29.48,SSE,148,8.0,14.0,69,0.00,,SKC,0.18,0.00,VWS V14.01,2013-05-16 01:50:00,
2013-05-15 20:55:00,78.6,68.0,29.48,ESE,113,7.0,15.0,70,0.00,,---,0.18,0.00,VWS V14.00,2013-05-16 01:55:00,
2013-05-15 21:00:00,78.5,67.9,29.48,SE,146,6.0,15.0,70,0.00,,---,0.18,0.00,VWS V14.00,2013-05-16 02:00:00,
2013-05-15 21:05:00,78.3,68.1,29.48,SE,142,5.0,17.0,71,0.00,,---,0.18,0.00,VWS V14.00,2013-05-16 02:05:00,
2013-05-15 21:10:00,78.1,68.3,29.48,ESE,116,15.0,18.0,72,0.00,,---,0.18,0.00,VWS V14.00,2013-05-16 02:10:00,
2013-05-15 21:15:00,78.0,68.2,29.48,ESE,123,6.0,18.0,72,0.00,,---,0.18,0.00,VWS V14.00,2013-05-16 02:15:00,
2013-05-15 21:20:00,77.8,68.5,29.48,SE,145,8.0,18.0,73,0.00,,---,0.18,0.00,VWS V14.00,2013-05-16 02:20:00,
2013-05-15 21:25:00,77.5,68.6,29.48,SE,130,12.0,14.0,74,0.00,,---,0.18,0.00,VWS V14.00,2013-05-16 02:25:00,
2013-05-15 21:30:00,77.3,68.8,29.48,SE,135,6.0,17.0,75,0.00,,---,0.18,0.00,VWS V14.00,2013-05-16 02:30:00,
2013-05-15 21:35:00,77.0,68.9,29.48,SSE,158,6.0,21.0,76,0.00,,---,0.18,0.00,VWS V14.00,2013-05-16 02:35:00,
2013-05-15 21:40:00,76.8,68.7,29.48,South,184,12.0,21.0,76,0.00,,---,0.18,0.00,VWS V14.00,2013-05-16 02:40:00,
2013-05-15 21:45:00,76.6,68.9,29.48,SE,132,12.0,15.0,77,0.00,,---,0.18,0.00,VWS V14.00,2013-05-16 02:45:00,
2013-05-15 21:50:00,76.4,68.7,29.48,SE,146,6.0,19.0,77,0.00,,---,0.18,0.00,VWS V14.00,2013-05-16 02:50:00,
2013-05-15 21:55:00,76.3,68.9,29.49,SE,144,7.0,15.0,78,0.00,,---,0.18,0.00,VWS V14.00,2013-05-16 02:55:00,
2013-05-15 22:00:00,76.1,68.8,29.48,SSE,152,8.0,18.0,78,0.00,,SKC,0.18,0.00,VWS V14.01,2013-05-16 03:00:00,
2013-05-15 22:01:00,76.1,68.8,29.48,SSE,153,5.0,18.0,78,0.00,,---,0.18,0.00,VWS V14.00,2013-05-16 03:01:00,
2013-05-15 22:06:00,76.0,69.0,29.48,South,169,10.0,13.0,79,0.00,,---,0.18,0.00,VWS V14.00,2013-05-16 03:06:00,
2013-05-15 22:10:00,75.7,68.7,29.48,SSE,149,13.0,21.0,79,0.00,,SKC,0.18,0.00,VWS V14.01,2013-05-16 03:10:00,
2013-05-15 22:11:00,75.8,68.8,29.48,SE,146,21.0,21.0,79,0.00,,---,0.18,0.00,VWS V14.00,2013-05-16 03:11:00,
2013-05-15 22:16:00,75.7,68.7,29.48,SSE,158,12.0,24.0,79,0.00,,---,0.18,0.00,VWS V14.00,2013-05-16 03:16:00,
2013-05-15 22:20:00,75.6,69.0,29.47,SE,126,13.0,24.0,80,0.00,,SKC,0.18,0.00,VWS V14.01,2013-05-16 03:20:00,
2013-05-15 22:21:00,75.5,68.9,29.47,SSE,152,6.0,24.0,80,0.00,,---,0.18,0.00,VWS V14.00,2013-05-16 03:21:00,
2013-05-15 22:26:00,75.4,68.8,29.47,SSE,155,10.0,17.0,80,0.00,,---,0.18,0.00,VWS V14.00,2013-05-16 03:26:00,
2013-05-15 22:30:00,75.3,68.7,29.47,SE,139,6.0,22.0,80,0.00,,SKC,0.18,0.00,VWS V14.01,2013-05-16 03:30:00,
2013-05-15 22:31:00,75.3,68.7,29.47,SE,132,6.0,22.0,80,0.00,,---,0.18,0.00,VWS V14.00,2013-05-16 03:31:00,
2013-05-15 22:37:00,75.2,68.6,29.48,ESE,117,9.0,19.0,80,0.00,,---,0.18,0.00,VWS V14.00,2013-05-16 03:37:00,
2013-05-15 22:40:00,75.1,68.9,29.47,SE,144,8.0,19.0,81,0.00,,SKC,0.18,0.00,VWS V14.01,2013-05-16 03:40:00,
2013-05-15 22:42:00,75.1,68.9,29.47,SSE,162,14.0,20.0,81,0.00,,---,0.18,0.00,VWS V14.00,2013-05-16 03:42:00,
2013-05-15 22:47:00,75.0,68.8,29.47,SSE,160,13.0,20.0,81,0.00,,---,0.18,0.00,VWS V14.00,2013-05-16 03:47:00,
2013-05-15 22:50:00,74.9,68.7,29.47,SE,132,14.0,22.0,81,0.00,,SKC,0.18,0.00,VWS V14.01,2013-05-16 03:50:00,
2013-05-15 22:52:00,74.9,68.7,29.47,SE,125,8.0,15.0,81,0.00,,---,0.18,0.00,VWS V14.00,2013-05-16 03:52:00,
2013-05-15 22:57:00,74.7,68.8,29.46,SE,137,18.0,22.0,82,0.00,,---,0.18,0.00,VWS V14.00,2013-05-16 03:57:00,
2013-05-15 23:00:00,74.6,68.8,29.45,SE,134,17.0,23.0,82,0.00,,SKC,0.18,0.00,VWS V14.01,2013-05-16 04:00:00,
2013-05-15 23:01:00,74.7,68.8,29.45,SE,146,12.0,23.0,82,0.00,,---,0.18,0.00,VWS V14.00,2013-05-16 04:01:00,
2013-05-15 23:06:00,74.6,68.8,29.45,SSE,151,9.0,18.0,82,0.00,,---,0.18,0.00,VWS V14.00,2013-05-16 04:06:00,
2013-05-15 23:10:00,74.5,68.7,29.44,SSE,149,13.0,21.0,82,0.00,,SKC,0.18,0.00,VWS V14.01,2013-05-16 04:10:00,
2013-05-15 23:11:00,74.6,68.8,29.44,SSE,160,8.0,21.0,82,0.00,,---,0.18,0.00,VWS V14.00,2013-05-16 04:11:00,
2013-05-15 23:16:00,74.5,68.7,29.44,SSE,157,8.0,23.0,82,0.00,,---,0.18,0.00,VWS V14.00,2013-05-16 04:16:00,
2013-05-15 23:20:00,74.4,68.6,29.43,South,178,14.0,24.0,82,0.00,,SKC,0.18,0.00,VWS V14.01,2013-05-16 04:20:00,
2013-05-15 23:21:00,74.5,68.7,29.43,SE,140,12.0,24.0,82,0.00,,---,0.18,0.00,VWS V14.00,2013-05-16 04:21:00,
2013-05-15 23:26:00,74.4,68.6,29.44,SSE,168,8.0,27.0,82,0.00,,---,0.18,0.00,VWS V14.00,2013-05-16 04:26:00,
2013-05-15 23:30:00,74.5,69.0,29.44,ESE,107,9.0,27.0,83,0.00,,SKC,0.18,0.00,VWS V14.01,2013-05-16 04:30:00,
2013-05-15 23:31:00,74.4,68.9,29.44,SE,142,8.0,27.0,83,0.00,,---,0.18,0.00,VWS V14.00,2013-05-16 04:31:00,
2013-05-15 23:36:00,74.4,68.9,29.44,SE,136,20.0,24.0,83,0.00,,---,0.18,0.00,VWS V14.00,2013-05-16 04:36:00,
2013-05-15 23:40:00,74.3,68.8,29.44,SSE,154,12.0,25.0,83,0.00,,SKC,0.18,0.00,VWS V14.01,2013-05-16 04:40:00,
2013-05-15 23:41:00,74.3,68.8,29.44,SE,146,12.0,25.0,83,0.00,,---,0.18,0.00,VWS V14.00,2013-05-16 04:41:00,
2013-05-15 23:46:00,74.3,68.8,29.44,SSE,155,16.0,22.0,83,0.00,,---,0.18,0.00,VWS V14.00,2013-05-16 04:46:00,
2013-05-15 23:50:00,74.2,68.7,29.44,SE,146,8.0,23.0,83,0.00,,SKC,0.18,0.00,VWS V14.01,2013-05-16 04:50:00,
2013-05-15 23:51:00,74.2,68.7,29.44,SSE,152,10.0,23.0,83,0.00,,---,0.18,0.00,VWS V14.00,2013-05-16 04:51:00,
2013-05-15 23:56:00,74.2,68.7,29.45,SSE,153,14.0,19.0,83,0.00,,---,0.18,0.00,VWS V14.00,2013-05-16 04:56:00,